Location: Newark
(46.7636°N, 1.8358°W)
Time: 16:33:07
(UTC+00:00)

Vanguard 1 Rocket - Pass Details

Date: 29 October 2019
Orbit: 651 x 4226 km, 34.3° (Epoch: 19 November)

Event Time Altitude Azimuth Distance (km) Brightness Sun altitude
Rises 07:17:01 0° 205° (SSW) 3,965 10.7 4.3°
Reaches altitude 10° 07:19:52 10° 191° (SSW) 3,360 10.5 4.8°
Maximum altitude 07:26:43 25° 139° (SE) 3,190 11.4 5.8°
Drops below altitude 10° 07:37:36 10° 93° (E) 5,542 12.8 7.5°
Sets 07:44:11 0° 83° (E) 7,213 12.9 8.4°
